Time,TemperatureF,DewpointF,PressureIn,WindDirection,WindDirectionDegrees,WindSpeedMPH,WindSpeedGustMPH,Humidity,HourlyPrecipIn,Conditions,Clouds,dailyrainin,SoftwareType,DateUTC
2013-06-15 00:01:00,73.0,36.0,-100.00,WSW,245,17.0,29.0,26,0.00,,,-99.99,,2013-06-15 00:01:00,
2013-06-15 00:22:00,72.0,36.0,-100.00,West,260,17.0,29.0,26,0.00,,,-99.99,,2013-06-15 00:22:00,
2013-06-15 00:34:00,72.0,35.0,-100.00,West,275,22.0,29.0,26,0.00,,,-99.99,,2013-06-15 00:34:00,
2013-06-15 00:52:00,72.0,35.0,-100.00,West,270,20.0,26.0,25,0.00,,,-99.99,,2013-06-15 00:52:00,
2013-06-15 01:22:00,71.0,34.0,-100.00,West,260,11.0,23.0,25,0.00,,,-99.99,,2013-06-15 01:22:00,
2013-06-15 01:54:00,70.0,33.0,-100.00,West,265,11.0,17.0,25,0.00,,,-99.99,,2013-06-15 01:54:00,
2013-06-15 02:22:00,67.0,32.0,-100.00,West,275,5.0,9.0,27,0.00,,,-99.99,,2013-06-15 02:22:00,
2013-06-15 02:33:00,65.0,32.0,-100.00,West,275,1.0,6.0,28,0.00,,,-99.99,,2013-06-15 02:33:00,
2013-06-15 02:53:00,63.0,31.0,-100.00,SSW,195,1.0,12.0,29,0.00,,,-99.99,,2013-06-15 02:53:00,
2013-06-15 03:01:00,62.0,31.0,-100.00,SW,235,0.0,4.0,30,0.00,,,-99.99,,2013-06-15 03:01:00,
2013-06-15 03:23:00,60.0,30.0,-100.00,SW,230,1.0,4.0,31,0.00,,,-99.99,,2013-06-15 03:23:00,
2013-06-15 03:32:00,59.0,29.0,-100.00,West,275,3.0,4.0,31,0.00,,,-99.99,,2013-06-15 03:32:00,
2013-06-15 03:52:00,59.0,29.0,-100.00,West,270,4.0,9.0,31,0.00,,,-99.99,,2013-06-15 03:52:00,
2013-06-15 04:01:00,60.0,30.0,-100.00,West,260,11.0,15.0,31,0.00,,,-99.99,,2013-06-15 04:01:00,
2013-06-15 04:11:00,60.0,30.0,-100.00,WSW,250,13.0,16.0,31,0.00,,,-99.99,,2013-06-15 04:11:00,
2013-06-15 04:22:00,60.0,29.0,-100.00,WSW,250,13.0,19.0,31,0.00,,,-99.99,,2013-06-15 04:22:00,
2013-06-15 04:34:00,59.0,29.0,-100.00,NNE,15,1.0,14.0,31,0.00,,,-99.99,,2013-06-15 04:34:00,
2013-06-15 04:43:00,57.0,27.0,-100.00,NNE,20,6.0,12.0,31,0.00,,,-99.99,,2013-06-15 04:43:00,
2013-06-15 04:53:00,57.0,27.0,-100.00,West,275,8.0,10.0,31,0.00,,,-99.99,,2013-06-15 04:53:00,
2013-06-15 05:02:00,56.0,26.0,-100.00,West,275,1.0,10.0,32,0.00,,,-99.99,,2013-06-15 05:02:00,
2013-06-15 05:12:00,54.0,26.0,-100.00,West,270,4.0,5.0,32,0.00,,,-99.99,,2013-06-15 05:12:00,
2013-06-15 05:22:00,55.0,26.0,-100.00,West,280,5.0,7.0,32,0.00,,,-99.99,,2013-06-15 05:22:00,
2013-06-15 05:34:00,55.0,26.0,-100.00,WNW,290,4.0,6.0,32,0.00,,,-99.99,,2013-06-15 05:34:00,
2013-06-15 05:42:00,54.0,25.0,-100.00,WNW,295,6.0,9.0,32,0.00,,,-99.99,,2013-06-15 05:42:00,
2013-06-15 05:52:00,53.0,24.0,-100.00,WNW,295,2.0,4.0,33,0.00,,,-99.99,,2013-06-15 05:52:00,
2013-06-15 06:02:00,53.0,24.0,-100.00,WNW,285,4.0,6.0,33,0.00,,,-99.99,,2013-06-15 06:02:00,
2013-06-15 06:12:00,53.0,24.0,-100.00,WNW,295,4.0,7.0,33,0.00,,,-99.99,,2013-06-15 06:12:00,
2013-06-15 06:24:00,52.0,24.0,-100.00,SW,235,3.0,6.0,33,0.00,,,-99.99,,2013-06-15 06:24:00,
2013-06-15 06:33:00,52.0,24.0,-100.00,WSW,255,3.0,4.0,33,0.00,,,-99.99,,2013-06-15 06:33:00,
2013-06-15 06:43:00,51.0,24.0,-100.00,WSW,240,2.0,4.0,33,0.00,,,-99.99,,2013-06-15 06:43:00,
2013-06-15 06:53:00,51.0,23.0,-100.00,West,270,5.0,9.0,33,0.00,,,-99.99,,2013-06-15 06:53:00,
2013-06-15 07:01:00,51.0,23.0,-100.00,WSW,250,4.0,8.0,33,0.00,,,-99.99,,2013-06-15 07:01:00,
2013-06-15 07:11:00,50.0,23.0,-100.00,WSW,245,6.0,9.0,34,0.00,,,-99.99,,2013-06-15 07:11:00,
2013-06-15 07:23:00,49.0,23.0,-100.00,WSW,250,7.0,11.0,35,0.00,,,-99.99,,2013-06-15 07:23:00,
2013-06-15 07:33:00,48.0,23.0,-100.00,West,280,6.0,11.0,36,0.00,,,-99.99,,2013-06-15 07:33:00,
2013-06-15 07:43:00,48.0,23.0,-100.00,West,270,7.0,11.0,36,0.00,,,-99.99,,2013-06-15 07:43:00,
2013-06-15 07:53:00,48.0,23.0,-100.00,West,260,4.0,8.0,37,0.00,,,-99.99,,2013-06-15 07:53:00,
2013-06-15 08:02:00,47.0,23.0,-100.00,WSW,250,10.0,13.0,37,0.00,,,-99.99,,2013-06-15 08:02:00,
2013-06-15 08:11:00,47.0,23.0,-100.00,SW,230,12.0,16.0,38,0.00,,,-99.99,,2013-06-15 08:11:00,
2013-06-15 08:22:00,47.0,23.0,-100.00,WSW,250,8.0,12.0,38,0.00,,,-99.99,,2013-06-15 08:22:00,
2013-06-15 08:33:00,46.0,23.0,-100.00,WSW,240,9.0,13.0,39,0.00,,,-99.99,,2013-06-15 08:33:00,
2013-06-15 08:53:00,46.0,23.0,-100.00,WNW,285,4.0,12.0,40,0.00,,,-99.99,,2013-06-15 08:53:00,
2013-06-15 09:12:00,45.0,23.0,-100.00,WNW,285,6.0,13.0,40,0.00,,,-99.99,,2013-06-15 09:12:00,
2013-06-15 09:22:00,45.0,23.0,-100.00,NW,305,5.0,8.0,41,0.00,,,-99.99,,2013-06-15 09:22:00,
2013-06-15 09:33:00,45.0,23.0,-100.00,WNW,290,6.0,7.0,41,0.00,,,-99.99,,2013-06-15 09:33:00,
2013-06-15 09:52:00,44.0,23.0,-100.00,WSW,240,12.0,17.0,42,0.00,,,-99.99,,2013-06-15 09:52:00,
2013-06-15 10:02:00,44.0,23.0,-100.00,SW,235,11.0,17.0,43,0.00,,,-99.99,,2013-06-15 10:02:00,
2013-06-15 10:23:00,44.0,24.0,-100.00,SW,235,12.0,17.0,44,0.00,,,-99.99,,2013-06-15 10:23:00,
2013-06-15 10:33:00,44.0,24.0,-100.00,WSW,240,12.0,17.0,44,0.00,,,-99.99,,2013-06-15 10:33:00,
2013-06-15 10:53:00,44.0,24.0,-100.00,WSW,250,10.0,14.0,44,0.00,,,-99.99,,2013-06-15 10:53:00,
2013-06-15 11:02:00,44.0,24.0,-100.00,WSW,240,10.0,14.0,44,0.00,,,-99.99,,2013-06-15 11:02:00,
2013-06-15 11:11:00,46.0,25.0,-100.00,WSW,240,7.0,14.0,42,0.00,,,-99.99,,2013-06-15 11:11:00,
2013-06-15 11:22:00,45.0,24.0,-100.00,West,280,2.0,12.0,41,0.00,,,-99.99,,2013-06-15 11:22:00,
2013-06-15 11:53:00,43.0,22.0,-100.00,West,260,4.0,7.0,42,0.00,,,-99.99,,2013-06-15 11:53:00,
2013-06-15 12:01:00,44.0,22.0,-100.00,SW,225,2.0,7.0,42,0.00,,,-99.99,,2013-06-15 12:01:00,
2013-06-15 12:22:00,45.0,24.0,-100.00,SW,230,2.0,6.0,43,0.00,,,-99.99,,2013-06-15 12:22:00,
2013-06-15 12:33:00,46.0,25.0,-100.00,SW,230,2.0,5.0,42,0.00,,,-99.99,,2013-06-15 12:33:00,
2013-06-15 12:43:00,47.0,25.0,-100.00,SW,235,3.0,6.0,43,0.00,,,-99.99,,2013-06-15 12:43:00,
2013-06-15 12:52:00,47.0,26.0,-100.00,SSW,210,4.0,7.0,43,0.00,,,-99.99,,2013-06-15 12:52:00,
2013-06-15 13:02:00,47.0,26.0,-100.00,SW,230,9.0,12.0,44,0.00,,,-99.99,,2013-06-15 13:02:00,
2013-06-15 13:11:00,47.0,27.0,-100.00,SW,220,7.0,12.0,44,0.00,,,-99.99,,2013-06-15 13:11:00,
2013-06-15 13:22:00,49.0,28.0,-100.00,WSW,245,6.0,10.0,44,0.00,,,-99.99,,2013-06-15 13:22:00,
2013-06-15 13:32:00,51.0,31.0,-100.00,WSW,250,2.0,6.0,46,0.00,,,-99.99,,2013-06-15 13:32:00,
2013-06-15 13:43:00,51.0,32.0,-100.00,SW,230,2.0,4.0,47,0.00,,,-99.99,,2013-06-15 13:43:00,
2013-06-15 13:53:00,53.0,34.0,-100.00,West,265,1.0,4.0,47,0.00,,,-99.99,,2013-06-15 13:53:00,
2013-06-15 14:01:00,54.0,34.0,-100.00,SSE,155,1.0,2.0,45,0.00,,,-99.99,,2013-06-15 14:01:00,
2013-06-15 14:12:00,54.0,33.0,-100.00,East,85,3.0,6.0,45,0.00,,,-99.99,,2013-06-15 14:12:00,
2013-06-15 14:22:00,53.0,33.0,-100.00,ENE,70,5.0,8.0,47,0.00,,,-99.99,,2013-06-15 14:22:00,
2013-06-15 14:34:00,53.0,35.0,-100.00,ENE,60,6.0,9.0,48,0.00,,,-99.99,,2013-06-15 14:34:00,
2013-06-15 14:43:00,54.0,34.0,-100.00,East,95,5.0,9.0,47,0.00,,,-99.99,,2013-06-15 14:43:00,
2013-06-15 14:53:00,54.0,35.0,-100.00,East,85,5.0,7.0,47,0.00,,,-99.99,,2013-06-15 14:53:00,
2013-06-15 15:01:00,54.0,36.0,-100.00,ENE,65,6.0,9.0,49,0.00,,,-99.99,,2013-06-15 15:01:00,
2013-06-15 15:22:00,56.0,39.0,-100.00,NE,40,4.0,9.0,53,0.00,,,-99.99,,2013-06-15 15:22:00,
2013-06-15 15:33:00,56.0,39.0,-100.00,ENE,60,4.0,9.0,53,0.00,,,-99.99,,2013-06-15 15:33:00,
2013-06-15 15:53:00,57.0,40.0,-100.00,East,95,4.0,9.0,53,0.00,,,-99.99,,2013-06-15 15:53:00,
2013-06-15 16:01:00,58.0,41.0,-100.00,East,90,4.0,6.0,51,0.00,,,-99.99,,2013-06-15 16:01:00,
2013-06-15 16:11:00,58.0,41.0,-100.00,ENE,65,4.0,8.0,51,0.00,,,-99.99,,2013-06-15 16:11:00,
2013-06-15 16:22:00,60.0,42.0,-100.00,East,90,4.0,6.0,51,0.00,,,-99.99,,2013-06-15 16:22:00,
2013-06-15 16:33:00,61.0,43.0,-100.00,SE,130,2.0,8.0,50,0.00,,,-99.99,,2013-06-15 16:33:00,
2013-06-15 16:53:00,62.0,43.0,-100.00,NE,35,4.0,9.0,50,0.00,,,-99.99,,2013-06-15 16:53:00,
2013-06-15 17:21:00,65.0,44.0,-100.00,NNE,25,2.0,8.0,45,0.00,,,-99.99,,2013-06-15 17:21:00,
2013-06-15 17:52:00,64.0,44.0,-100.00,East,85,9.0,14.0,47,0.00,,,-99.99,,2013-06-15 17:52:00,
2013-06-15 18:12:00,66.0,44.0,-100.00,NE,45,7.0,12.0,45,0.00,,,-99.99,,2013-06-15 18:12:00,
2013-06-15 18:22:00,67.0,44.0,-100.00,NE,45,6.0,12.0,44,0.00,,,-99.99,,2013-06-15 18:22:00,
2013-06-15 18:32:00,68.0,44.0,-100.00,NE,50,9.0,12.0,41,0.00,,,-99.99,,2013-06-15 18:32:00,
2013-06-15 18:53:00,72.0,44.0,-100.00,SE,135,0.0,11.0,37,0.00,,,-99.99,,2013-06-15 18:53:00,
2013-06-15 19:01:00,73.0,43.0,-100.00,NNW,330,4.0,11.0,33,0.00,,,-99.99,,2013-06-15 19:01:00,
2013-06-15 19:22:00,74.0,42.0,-100.00,NE,55,5.0,11.0,31,0.00,,,-99.99,,2013-06-15 19:22:00,
2013-06-15 19:33:00,74.0,39.0,-100.00,WSW,255,15.0,19.0,28,0.00,,,-99.99,,2013-06-15 19:33:00,
2013-06-15 19:52:00,77.0,39.0,-100.00,West,280,10.0,19.0,25,0.00,,,-99.99,,2013-06-15 19:52:00,
2013-06-15 20:02:00,77.0,39.0,-100.00,WNW,285,11.0,20.0,25,0.00,,,-99.99,,2013-06-15 20:02:00,
2013-06-15 20:22:00,76.0,37.0,-100.00,WNW,285,14.0,24.0,24,0.00,,,-99.99,,2013-06-15 20:22:00,
2013-06-15 20:33:00,75.0,36.0,-100.00,West,280,12.0,21.0,24,0.00,,,-99.99,,2013-06-15 20:33:00,
2013-06-15 20:52:00,75.0,36.0,-100.00,SW,230,7.0,23.0,24,0.00,,,-99.99,,2013-06-15 20:52:00,
2013-06-15 21:01:00,75.0,36.0,-100.00,West,260,17.0,27.0,24,0.00,,,-99.99,,2013-06-15 21:01:00,
2013-06-15 21:22:00,75.0,36.0,-100.00,West,265,17.0,28.0,23,0.00,,,-99.99,,2013-06-15 21:22:00,
2013-06-15 21:33:00,74.0,35.0,-100.00,West,260,18.0,29.0,23,0.00,,,-99.99,,2013-06-15 21:33:00,
2013-06-15 21:52:00,76.0,36.0,-100.00,WSW,250,12.0,20.0,23,0.00,,,-99.99,,2013-06-15 21:52:00,
2013-06-15 22:01:00,74.0,35.0,-100.00,WSW,255,14.0,25.0,23,0.00,,,-99.99,,2013-06-15 22:01:00,
2013-06-15 22:22:00,74.0,34.0,-100.00,West,265,14.0,30.0,23,0.00,,,-99.99,,2013-06-15 22:22:00,
2013-06-15 22:32:00,73.0,34.0,-100.00,West,265,14.0,27.0,23,0.00,,,-99.99,,2013-06-15 22:32:00,
2013-06-15 23:22:00,74.0,34.0,-100.00,West,270,16.0,25.0,23,0.00,,,-99.99,,2013-06-15 23:22:00,
2013-06-15 23:33:00,75.0,35.0,-100.00,West,275,17.0,30.0,23,0.00,,,-99.99,,2013-06-15 23:33:00,
2013-06-15 23:53:00,74.0,34.0,-100.00,West,260,17.0,26.0,23,0.00,,,-99.99,,2013-06-15 23:53:00,